Location: Lugano
(46.0000°N, 8.9670°E)
Time: 00:09:31
(UTC+01:00)

BlueWalker 3 - Visible Passes

Search period start: 13 March 2026 00:00
Search period end: 23 March 2026 00:00
Orbit: 451 x 458 km, 53.2° (Epoch: 12 March)

Date Brightness Start Highest point End Pass type
(mag) Time Alt. Az. Time Alt. Az. Time Alt. Az.
13 Mar 3.5 04:14:27 28° NNE 04:14:27 28° NNE 04:17:20 10° ENE visible
13 Mar 1.8 05:48:20 10° WNW 05:51:57 84° NNE 05:55:32 10° ESE visible
14 Mar 4.6 03:39:47 17° NE 03:39:47 17° NE 03:40:59 10° ENE visible
14 Mar 2.0 05:13:28 21° NW 05:15:46 68° NNE 05:19:20 10° ESE visible
15 Mar 2.3 04:38:52 46° NNW 04:39:33 55° NNE 04:43:05 10° ESE visible
16 Mar 3.4 04:04:24 34° ENE 04:04:24 34° ENE 04:06:47 10° E visible
16 Mar 2.5 05:38:06 15° WNW 05:40:41 35° SW 05:43:58 10° SSE visible
17 Mar 4.9 03:30:04 12° E 03:30:04 12° E 03:30:27 10° E visible
17 Mar 2.0 05:03:47 38° WSW 05:04:32 45° SW 05:07:58 10° SE visible
18 Mar 2.8 04:29:40 34° SSE 04:29:40 34° SSE 04:31:53 10° SE visible
19 Mar 3.8 05:29:31 12° SW 05:29:31 12° SW 05:30:29 10° SSW visible
21 Mar 3.8 19:31:30 10° SSE 19:32:28 11° SE 19:32:28 11° SE visible
21 Mar 4.5 21:05:59 10° SW 21:06:14 12° SW 21:06:14 12° SW visible
22 Mar 2.2 20:29:47 10° SW 20:32:36 45° S 20:32:36 45° S visible
